[[{"header":{"parameterUnit":"m.s-1","parameterCategory":1,"la1":30.2992,"la2":30.254,"lo1":-89.0895,"lo2":-89.0443,"dy":0.0025,"dx":0.0025,"nx":19,"ny":19,"refTime":"2026-04-11T03:00:00:Z","depth":0,"parameterNumber":2,"parameterNumberName":"U-component_of_WINDS"},"data":[0,0,0,-4.0365,-4.0368,-4.0524,-4.0524,-4.0721,-4.0723,0,0,0,0,0,0,0,0,0,0,0,-4.0319,-4.032,-4.0365,-4.0369,-4.0524,-4.0524,-4.0721,-4.0723,0,0,0,0,0,0,0,0,0,0,0,-4.0318,-4.032,-4.0322,-4.0369,-4.0524,-4.0524,-4.0721,-4.0604,0,0,0,0,0,0,0,0,0,0,-4.0453,-4.0411,-4.032,-4.0322,-4.037,-4.0523,-4.0524,-4.0598,-4.0611,-4.0651,0,-4.0687,0,-4.0708,-4.0736,-4.0737,0,0,0,-4.0368,-4.04,-4.0442,-4.0322,-4.0372,-4.0523,-4.0454,-4.0605,-4.062,-4.0668,-4.069,-4.0697,-4.0711,-4.0738,-4.0739,-4.0969,-4.097,0,0,-4.036,-4.0347,-4.0432,-4.0452,-4.0429,-4.0449,-4.0458,-4.0614,-4.0637,-4.069,-4.0701,-4.0715,-4.0739,-4.074,-4.0968,-4.097,0,0,0,-4.0335,-4.0341,-4.0379,-4.0444,-4.0472,-4.0453,-4.0464,-4.063,-4.0643,-4.0704,-4.0717,-4.074,-4.0742,-4.0967,-4.0969,-4.1009,0,0,0,-4.033,-4.0326,-4.0375,-4.0369,-4.0469,-4.0553,-4.0476,-4.0633,-4.0651,-4.0716,-4.074,-4.0744,-4.0966,-4.0968,-4.1005,-4.1029,0,0,0,-4.0309,-4.0324,-4.0347,-4.0368,-4.0434,-4.0551,-4.0573,-4.0637,-4.0659,-4.0737,-4.0745,-4.0965,-4.0968,-4.1002,-4.1023,-4.1084,0,0,0,-4.0282,-4.038,-4.0347,-4.0462,-4.0433,-4.0575,-4.0572,-4.0679,-4.0751,-4.0741,-4.0966,-4.0969,-4.1001,-4.102,-4.1081,-4.1131,-4.1152,0,0,-4.0398,-4.0394,-4.0462,-4.0437,-4.0582,-4.0552,-4.0703,-4.0781,-4.0801,-4.0912,-4.0918,-4.1006,-4.1023,-4.1083,-4.1276,-4.1292,0,0,0,-4.0495,-4.0544,-4.0585,-4.0653,-4.0716,-4.0771,-4.0828,-4.0857,-4.0952,-4.0856,-4.1046,-4.1057,-4.1093,-4.1117,-4.1131,-4.1162,-4.098,-4.098,-4.098,-4.0639,-4.0659,-4.0773,-4.0812,-4.0879,-4.0937,-4.0992,-4.104,-4.1041,-4.1086,-4.1118,-4.1232,-4.1261,-4.1271,-4.1303,-4.1149,-4.1149,-4.1149,-4.1149,-4.0809,-4.088,-4.088,-4.0991,-4.1011,-4.1104,-4.1164,-4.1161,-4.125,-4.121,-4.1243,-4.1195,-4.1289,-4.1317,-4.1153,-4.1152,-4.1152,-4.1151,-4.1151,-4.0904,-4.0941,-4.0976,-4.1076,-4.1152,-4.1188,-4.1273,-4.1289,-4.1305,-4.1338,-4.1372,-4.1372,-4.1371,-4.1354,-4.1354,-4.1354,-4.1355,-4.1355,-4.1355,-4.0987,-4.1025,-4.1094,-4.117,-4.1215,-4.1278,-4.1338,-4.1383,-4.1437,-4.1442,-4.1442,-4.1437,-4.1295,-4.1257,-4.1361,-4.136,-4.136,-4.1359,-4.1359,-4.1148,-4.1114,-4.1222,-4.1268,-4.1357,-4.143,-4.1451,-4.1541,-4.1581,-4.1622,-4.1612,-4.1505,-4.1501,-4.149,-4.1458,-4.1608,-4.1608,-4.1608,-4.1608,-4.1225,-4.1226,-4.1339,-4.1411,-4.1484,-4.1513,-4.1633,-4.1681,-4.1725,-4.1751,-4.1732,-4.1693,-4.1682,-4.1684,-4.1669,-4.164,-4.1833,-4.1833,-4.1833,-4.1324,-4.1333,-4.1431,-4.1474,-4.1546,-4.1606,-4.1719,-4.1801,-4.1844,-4.1843,-4.1771,-4.1761,-4.1699,-4.1678,-4.1671,-4.1647,-4.1595,0,0]},{"header":{"parameterUnit":"m.s-1","parameterCategory":1,"la1":30.2992,"la2":30.254,"lo1":-89.0895,"lo2":-89.0443,"dy":0.0025,"dx":0.0025,"nx":19,"ny":19,"refTime":"2026-04-11T03:00:00:Z","depth":0,"parameterNumber":3,"parameterNumberName":"V-component_of_WINDS"},"data":[0,0,0,4.2009,4.2011,4.2057,4.2057,4.2132,4.2133,0,0,0,0,0,0,0,0,0,0,0,4.2007,4.2008,4.2009,4.2011,4.2057,4.2057,4.2132,4.2133,0,0,0,0,0,0,0,0,0,0,0,4.2007,4.2008,4.2009,4.2011,4.2057,4.2057,4.2132,4.2091,0,0,0,0,0,0,0,0,0,0,4.2043,4.2053,4.2008,4.2009,4.2011,4.2057,4.2057,4.2089,4.2094,4.2119,0,4.2146,0,4.2141,4.214,4.214,0,0,0,4.2002,4.2049,4.2051,4.2009,4.2012,4.2057,4.2033,4.2091,4.2097,4.2126,4.2147,4.2149,4.2143,4.214,4.2141,4.2321,4.2322,0,0,4.1999,4.2021,4.2048,4.2055,4.2051,4.2032,4.2035,4.2094,4.2118,4.2147,4.2151,4.2144,4.2141,4.2142,4.232,4.2321,0,0,0,4.1998,4.202,4.202,4.2053,4.206,4.2034,4.2037,4.2116,4.2114,4.2152,4.2145,4.2141,4.2142,4.2318,4.232,4.2404,0,0,0,4.1996,4.2019,4.202,4.2034,4.2059,4.2089,4.2058,4.211,4.2116,4.2144,4.2141,4.2143,4.2317,4.2319,4.2398,4.2439,0,0,0,4.2,4.2019,4.203,4.2035,4.2055,4.2087,4.2089,4.2111,4.2112,4.214,4.2144,4.2316,4.2319,4.2394,4.2431,4.2492,0,0,0,4.2011,4.2103,4.2032,4.2133,4.2055,4.214,4.2088,4.2149,4.2183,4.2142,4.2317,4.232,4.2392,4.2426,4.2487,4.2547,4.2574,0,0,4.214,4.212,4.2177,4.2115,4.2217,4.2131,4.2245,4.2254,4.2236,4.2293,4.2298,4.24,4.2431,4.2491,4.2722,4.2744,0,0,0,4.2226,4.2267,4.229,4.2323,4.2334,4.2346,4.2336,4.2339,4.2387,4.2271,4.2439,4.2456,4.2491,4.2518,4.2537,4.2564,4.2334,4.2334,4.2334,4.2438,4.2412,4.2505,4.2484,4.2518,4.2507,4.2531,4.2534,4.2496,4.2536,4.2552,4.2696,4.2729,4.2743,4.2772,4.2583,4.2583,4.2584,4.2584,4.2624,4.2678,4.2627,4.27,4.267,4.273,4.2724,4.2695,4.2746,4.2681,4.271,4.2641,4.2767,4.2792,4.259,4.2589,4.2588,4.2587,4.2587,4.2759,4.278,4.2784,4.2831,4.2869,4.2845,4.2896,4.2868,4.2841,4.287,4.2884,4.2882,4.2876,4.2879,4.288,4.288,4.2881,4.2881,4.2881,4.2897,4.2899,4.2946,4.2966,4.2984,4.3005,4.2996,4.3012,4.3023,4.2998,4.2998,4.2956,4.2786,4.2743,4.2889,4.2887,4.2886,4.2886,4.2885,4.3092,4.3044,4.3117,4.3136,4.3157,4.3197,4.3161,4.3197,4.3207,4.3233,4.3185,4.3065,4.3041,4.3026,4.299,4.3192,4.3192,4.3192,4.3192,4.3205,4.3192,4.326,4.3291,4.3319,4.3294,4.3376,4.3371,4.3357,4.3361,4.3328,4.3278,4.3265,4.3249,4.3229,4.3195,4.3444,4.3445,4.3445,4.3323,4.3311,4.3387,4.3374,4.3389,4.3402,4.3478,4.3515,4.3489,4.3454,4.3363,4.3352,4.3272,4.3248,4.3209,4.3179,4.3116,0,0]}]]